Wind_Speed
12 13 12 12 12 12 13 13 12 11 9 7 8 10 12 12 10 10 10 9 9 9 9 9 9 10 10 10 10 10 9 9 9 8 8 6 6 6 7 6 4 3 3 3
14 13 13 14 14 15 15 15 13 12 11 9 10 11 13 14 12 12 13 11 10 9 10 9 9 9 9 9 9 9 8 8 8 8 8 7 6 6 7 6 5 4 4 3
15 14 15 16 16 17 15 16 16 16 15 12 11 13 14 14 14 15 14 13 12 10 10 10 9 9 9 9 9 9 9 8 8 8 8 7 7 7 7 7 6 6 5 4
18 18 18 18 18 18 17 17 18 18 15 14 14 17 16 16 16 17 16 14 13 11 10 10 10 10 10 9 9 9 9 9 9 9 9 8 9 8 8 7 7 6 5 6
18 18 19 19 20 19 18 17 19 19 17 17 16 16 17 16 17 17 18 16 15 13 12 12 11 11 10 10 10 10 10 9 10 10 10 10 10 10 9 8 7 7 6 7
19 18 20 21 21 20 19 19 19 17 18 19 16 17 18 17 19 19 18 17 16 17 14 13 13 13 12 11 11 11 11 10 11 11 11 12 11 11 10 9 9 8 8 8
18 19 20 21 22 21 20 19 19 18 19 20 18 18 20 19 20 21 20 19 19 20 18 16 16 16 15 14 13 13 13 13 12 12 13 13 13 12 12 11 11 10 10 11
17 19 20 21 22 23 21 21 22 21 21 20 20 21 20 21 21 21 21 20 20 22 21 19 18 18 18 17 16 15 15 15 15 15 15 15 14 14 14 14 14 13 13 13
18 19 20 20 22 22 22 23 23 24 24 23 22 22 21 23 21 20 20 21 22 24 23 21 21 20 20 19 19 19 18 17 17 17 17 17 16 16 17 17 16 16 16 16
20 20 19 20 21 22 23 23 22 23 24 24 22 21 24 23 22 23 22 23 24 25 24 24 23 23 22 22 22 22 21 20 19 19 19 19 18 18 18 18 18 18 17 17
22 23 20 19 20 20 21 23 24 24 24 24 24 24 24 27 26 25 25 26 26 26 25 24 24 25 24 23 24 24 23 22 21 21 21 21 21 20 20 20 20 20 20 20
23 23 23 21 20 21 22 22 23 25 27 26 26 26 25 28 27 27 27 28 26 27 28 27 27 27 27 26 26 26 26 25 24 23 23 23 23 22 21 22 23 23 23 23
25 25 23 21 20 21 22 23 24 25 26 27 26 28 28 27 29 29 28 30 29 29 29 29 29 30 29 29 28 28 27 27 26 26 26 25 25 24 24 24 25 25 25 24
27 26 25 22 21 21 21 22 23 25 26 28 27 27 28 29 30 31 31 31 31 30 30 31 31 31 31 31 30 29 29 29 28 28 28 28 28 27 26 26 25 26 24 23
29 29 28 27 25 24 23 23 24 25 28 30 29 29 30 32 34 33 31 31 31 30 31 32 32 32 32 32 31 31 31 31 31 30 30 30 30 30 29 28 27 26 25 25
31 32 31 31 29 28 28 27 26 27 28 29 30 31 32 34 34 35 32 32 32 31 31 32 33 34 33 33 32 32 33 33 33 33 32 33 33 32 31 31 30 29 28 28
32 32 33 32 31 31 31 28 29 30 30 31 31 32 32 33 34 35 33 33 32 31 32 32 33 34 34 33 33 34 33 34 35 35 35 34 34 34 33 33 33 33 31 30
33 34 33 33 33 35 32 29 30 32 32 32 33 34 35 34 34 33 32 32 33 33 32 32 33 34 34 34 34 35 35 36 36 36 35 35 35 35 35 35 34 34 33 32
33 34 34 33 33 34 31 30 31 33 33 34 35 35 35 35 35 34 33 34 34 34 33 32 33 35 35 36 36 36 37 37 37 37 36 36 37 37 36 35 34 35 34 33
32 33 34 34 34 33 31 31 32 34 33 34 34 35 34 34 35 35 35 34 34 34 35 34 35 36 37 37 37 37 37 38 38 37 38 38 38 39 38 36 35 35 34 35
31 32 34 34 34 33 32 33 33 34 35 34 34 34 33 34 35 36 36 35 35 35 35 36 37 37 37 38 38 38 38 39 39 39 40 39 38 38 37 37 36 35 35 35
32 32 32 32 33 33 33 33 34 35 34 33 34 33 33 34 34 35 35 35 35 36 36 36 35 36 37 37 38 39 39 39 39 38 38 38 38 36 37 37 37 37 37 37
33 33 33 32 33 34 32 32 33 33 34 34 34 35 33 33 34 34 34 34 34 34 35 36 35 35 35 35 36 36 37 38 38 37 37 37 37 37 38 38 39 38 38 38
33 33 34 34 34 33 32 32 33 33 33 34 34 34 33 35 35 34 32 31 32 34 35 36 36 36 35 36 36 36 37 38 37 37 36 35 35 36 37 37 37 37 37 37
34 34 35 34 33 33 33 32 32 33 33 33 34 34 33 34 35 34 34 33 34 34 34 35 36 36 35 35 36 36 35 35 36 35 34 34 35 35 36 37 36 35 36 37
33 33 33 33 33 33 32 32 31 33 34 35 34 33 33 33 34 34 34 34 34 34 35 35 35 35 36 36 36 36 35 35 34 33 33 34 35 35 35 36 36 35 35 35
Wind_Direction
237 237 236 231 233 239 242 238 244 247 244 244 267 273 280 288 286 294 303 312 322 329 334 344 351 357 3 7 11 14 18 22 21 21 19 25 32 29 26 24 21 21 13 11
236 244 245 242 240 242 246 246 248 250 250 249 254 260 274 281 283 290 295 300 307 313 316 324 335 343 348 354 358 0 1 4 7 6 7 8 16 19 19 19 18 10 3 1
239 241 246 245 242 242 244 251 252 249 248 241 253 256 258 270 283 283 289 293 297 301 304 307 318 326 330 335 343 345 345 347 350 349 351 355 358 2 7 8 7 4 356 345
242 242 246 246 241 241 247 248 254 253 249 245 246 260 262 264 267 272 279 285 288 291 296 299 303 312 316 318 325 332 334 336 338 337 339 344 350 349 350 350 352 351 344 336
244 245 248 247 245 244 248 249 253 254 255 250 248 257 258 261 264 264 268 275 283 283 284 289 293 299 304 306 309 315 319 321 324 326 328 329 335 338 338 340 338 336 331 328
242 244 245 247 246 244 246 251 257 260 256 255 250 254 264 262 260 263 264 268 277 279 277 283 287 290 292 296 301 303 303 305 310 316 320 321 323 326 326 326 324 320 320 321
248 247 248 248 244 243 247 250 254 261 263 264 263 257 258 258 259 263 267 265 271 277 276 278 281 282 283 287 290 291 292 295 300 304 308 312 314 316 317 315 313 309 309 311
258 257 251 249 246 244 244 244 247 253 258 264 264 260 259 258 257 258 263 262 263 271 275 275 277 276 276 278 281 284 287 288 291 294 297 299 303 306 307 307 307 305 302 303
247 255 256 254 251 249 245 241 244 252 256 259 259 263 266 262 258 261 265 262 262 267 269 269 272 274 273 273 275 279 281 282 284 288 291 291 292 295 298 299 302 301 299 299
243 246 249 253 252 250 245 243 245 249 256 258 258 260 261 260 259 260 256 257 259 262 265 267 267 270 272 272 273 275 277 279 280 283 286 287 287 289 291 293 296 295 294 294
241 242 242 247 250 247 248 245 243 246 249 254 259 257 257 261 255 258 260 261 263 265 266 265 267 267 269 271 272 273 275 276 277 278 279 281 284 285 287 288 291 292 292 292
243 244 243 242 249 249 247 245 247 250 252 251 258 262 258 258 261 260 262 261 263 265 265 266 267 266 266 267 269 271 272 273 274 274 275 277 279 282 282 284 287 288 289 290
243 243 244 245 246 249 250 249 247 248 255 257 259 264 266 265 265 262 260 261 262 265 265 263 263 264 264 266 266 267 270 271 270 271 272 273 275 277 278 280 281 284 287 289
246 244 241 241 244 248 253 253 251 250 251 256 258 262 266 267 264 261 257 258 260 264 266 263 262 263 263 263 265 266 268 268 267 268 269 271 272 273 275 277 280 282 285 288
248 246 244 241 241 245 249 252 253 253 253 254 257 258 260 265 265 262 258 257 259 262 265 263 261 263 264 266 266 264 265 267 267 268 267 269 270 272 272 274 277 280 283 285
251 249 248 247 245 245 249 249 251 254 255 256 258 260 259 259 259 259 260 260 260 261 262 262 261 262 262 263 264 264 265 265 265 267 268 268 269 270 269 270 272 274 279 281
254 253 252 252 251 249 250 252 255 256 256 257 258 260 261 261 262 264 267 266 262 260 260 261 261 262 261 262 263 263 265 267 266 266 267 268 269 269 269 269 272 273 274 276
255 255 256 256 255 253 254 252 254 257 256 256 257 259 259 261 265 266 267 266 265 265 262 259 259 261 261 262 263 264 265 267 269 269 267 267 267 268 268 268 271 270 271 274
254 255 256 257 257 258 257 255 255 257 258 258 259 261 261 264 266 265 265 266 266 264 261 258 259 260 261 261 263 264 265 267 268 268 267 268 267 267 267 267 267 268 270 271
254 255 256 257 257 257 255 253 255 256 257 258 260 261 262 263 263 264 266 264 263 263 262 260 259 260 261 262 263 264 265 266 268 268 267 268 268 268 267 266 267 266 267 269
255 255 256 256 256 256 255 254 255 256 256 259 259 262 262 262 262 263 263 262 262 263 264 262 262 264 262 262 262 263 264 265 266 268 268 267 267 266 264 264 265 266 267 269
252 254 255 256 256 253 253 255 254 255 258 259 259 261 262 261 261 263 262 262 262 262 264 264 264 264 263 262 262 262 264 265 266 268 267 265 266 264 263 265 266 267 269 271
249 252 254 252 253 255 255 255 255 255 256 258 259 260 262 264 263 262 262 262 262 261 263 264 265 265 264 264 265 265 265 267 267 267 267 267 265 264 264 264 265 267 269 270
248 250 250 250 252 253 254 256 256 256 258 260 261 261 263 265 266 265 263 262 262 262 263 264 264 264 265 265 266 267 266 266 265 267 267 267 267 266 266 265 265 267 268 269
248 249 250 251 252 253 253 256 257 257 259 260 261 261 264 266 267 266 264 264 264 264 264 264 265 265 267 267 268 268 267 267 267 269 269 269 270 270 269 267 268 269 271 270
251 251 252 252 253 255 254 254 256 258 259 261 264 265 264 264 264 264 263 263 264 266 266 267 269 270 270 269 268 268 267 268 269 270 269 269 270 271 271 271 270 270 272 273
Height
5889 5892 5894 5897 5900 5902 5903 5906 5907 5907 5908 5909 5910 5910 5909 5908 5907 5906 5906 5905 5905 5904 5903 5902 5902 5901 5900 5899 5898 5897 5896 5895 5894 5893 5892 5891 5891 5891 5890 5889 5889 5889 5889 5889
5888 5890 5893 5895 5897 5899 5900 5902 5903 5905 5905 5907 5909 5909 5908 5907 5906 5905 5905 5904 5904 5904 5903 5902 5901 5901 5900 5899 5899 5898 5897 5896 5895 5894 5893 5892 5892 5891 5890 5890 5889 5889 5889 5889
5885 5889 5891 5892 5894 5896 5898 5900 5901 5902 5902 5904 5906 5906 5906 5905 5905 5904 5904 5903 5902 5902 5902 5901 5901 5900 5900 5899 5899 5898 5897 5896 5895 5895 5894 5893 5892 5891 5891 5890 5890 5889 5889 5889
5882 5885 5887 5888 5890 5892 5894 5896 5897 5897 5898 5899 5903 5903 5903 5903 5902 5902 5901 5901 5901 5900 5900 5900 5900 5899 5899 5899 5898 5897 5897 5896 5895 5894 5894 5893 5892 5892 5891 5890 5890 5889 5889 5888
5878 5881 5883 5884 5886 5888 5890 5892 5892 5893 5894 5896 5898 5899 5900 5900 5899 5899 5898 5898 5898 5898 5898 5898 5898 5898 5898 5897 5897 5896 5896 5896 5895 5894 5894 5893 5892 5892 5891 5890 5890 5889 5888 5888
5873 5876 5878 5880 5882 5883 5885 5888 5887 5888 5890 5891 5894 5896 5896 5896 5895 5895 5894 5894 5895 5895 5894 5895 5895 5895 5896 5896 5895 5895 5895 5894 5894 5893 5893 5892 5891 5891 5890 5890 5889 5888 5888 5887
5869 5871 5873 5874 5876 5879 5881 5884 5885 5885 5886 5888 5890 5891 5892 5892 5892 5892 5891 5892 5892 5892 5891 5892 5893 5893 5893 5893 5893 5892 5892 5892 5892 5892 5891 5890 5890 5889 5888 5888 5887 5886 5886 5886
5865 5867 5869 5869 5871 5873 5876 5879 5881 5882 5884 5885 5886 5886 5887 5887 5887 5887 5887 5886 5887 5888 5888 5888 5888 5889 5889 5889 5889 5889 5889 5889 5889 5889 5888 5888 5887 5887 5886 5886 5885 5884 5884 5883
5861 5863 5864 5865 5866 5868 5870 5872 5875 5877 5878 5879 5881 5881 5882 5881 5880 5881 5882 5883 5882 5882 5883 5884 5884 5884 5885 5885 5885 5885 5886 5886 5886 5885 5885 5885 5884 5884 5883 5883 5882 5882 5881 5880
5854 5856 5858 5860 5861 5862 5864 5867 5870 5871 5871 5872 5875 5877 5876 5876 5877 5875 5875 5876 5877 5876 5877 5878 5879 5879 5880 5880 5881 5881 5881 5881 5881 5881 5881 5881 5881 5880 5879 5879 5879 5878 5877 5877
5848 5850 5853 5854 5855 5857 5859 5860 5862 5864 5866 5867 5868 5871 5871 5869 5869 5869 5869 5870 5871 5872 5872 5871 5873 5874 5874 5875 5875 5875 5876 5876 5877 5877 5877 5876 5876 5875 5875 5875 5874 5874 5873 5873
5841 5843 5845 5848 5850 5851 5852 5854 5857 5858 5859 5860 5861 5864 5863 5862 5861 5861 5862 5862 5864 5866 5866 5866 5867 5868 5868 5869 5869 5870 5870 5870 5871 5871 5871 5871 5871 5870 5870 5870 5869 5869 5869 5868
5834 5836 5839 5842 5845 5846 5846 5848 5850 5851 5853 5854 5855 5857 5855 5854 5854 5853 5855 5855 5857 5859 5859 5860 5860 5860 5862 5862 5863 5863 5863 5864 5865 5865 5865 5865 5865 5865 5864 5864 5863 5863 5863 5862
5827 5829 5832 5836 5838 5839 5840 5841 5843 5844 5845 5846 5848 5849 5847 5845 5845 5845 5847 5848 5849 5851 5852 5853 5853 5853 5854 5855 5855 5856 5856 5857 5857 5858 5858 5858 5858 5858 5858 5858 5857 5857 5857 5856
5819 5821 5824 5826 5828 5831 5832 5834 5836 5836 5837 5838 5839 5840 5840 5838 5836 5836 5838 5839 5840 5842 5843 5844 5844 5845 5845 5847 5848 5849 5849 5849 5850 5850 5850 5850 5851 5851 5851 5851 5851 5851 5850 5850
5811 5813 5815 5817 5820 5822 5823 5825 5827 5828 5829 5829 5830 5831 5830 5829 5828 5827 5828 5829 5831 5833 5835 5835 5836 5837 5837 5838 5839 5840 5841 5841 5842 5842 5842 5842 5842 5843 5843 5843 5843 5843 5844 5843
5803 5805 5806 5809 5811 5812 5814 5817 5818 5819 5820 5821 5821 5822 5821 5820 5819 5820 5821 5821 5823 5823 5825 5827 5827 5828 5828 5830 5831 5831 5832 5832 5832 5833 5833 5834 5834 5834 5834 5835 5835 5835 5835 5835
5795 5796 5798 5800 5802 5802 5808 5809 5809 5809 5810 5811 5811 5811 5812 5811 5811 5812 5813 5813 5814 5814 5815 5817 5818 5819 5820 5820 5821 5822 5823 5823 5823 5823 5823 5824 5825 5825 5825 5826 5826 5826 5826 5826
5786 5787 5789 5791 5792 5794 5799 5800 5799 5799 5800 5802 5801 5802 5803 5803 5802 5803 5803 5804 5804 5805 5806 5807 5808 5809 5810 5811 5811 5812 5812 5812 5813 5813 5814 5814 5815 5815 5816 5816 5817 5817 5817 5817
5776 5778 5780 5781 5783 5785 5789 5790 5789 5790 5791 5791 5791 5792 5793 5793 5793 5793 5793 5794 5795 5795 5796 5797 5799 5799 5799 5800 5801 5801 5802 5802 5802 5803 5803 5804 5804 5805 5806 5806 5806 5806 5806 5807
5767 5768 5770 5771 5772 5775 5778 5778 5780 5782 5782 5781 5782 5782 5784 5784 5784 5784 5784 5784 5785 5785 5786 5787 5788 5788 5789 5789 5789 5790 5790 5791 5791 5792 5792 5792 5793 5794 5795 5795 5795 5795 5796 5796
5758 5760 5761 5762 5763 5767 5767 5768 5770 5771 5771 5772 5773 5774 5774 5775 5774 5774 5775 5775 5775 5776 5777 5777 5778 5778 5778 5778 5778 5779 5779 5780 5779 5780 5779 5781 5782 5782 5783 5784 5785 5785 5786 5786
5749 5751 5751 5753 5755 5756 5756 5758 5759 5761 5762 5763 5764 5765 5766 5766 5765 5765 5766 5766 5766 5766 5767 5767 5768 5768 5768 5768 5768 5768 5769 5769 5769 5768 5769 5770 5771 5772 5773 5773 5774 5775 5775 5775
5739 5740 5741 5742 5744 5746 5748 5749 5750 5751 5752 5754 5755 5756 5756 5757 5757 5757 5757 5756 5757 5757 5758 5758 5759 5759 5759 5759 5759 5759 5759 5759 5759 5758 5759 5760 5760 5761 5762 5762 5763 5764 5764 5764
5729 5730 5731 5733 5735 5736 5738 5739 5741 5742 5743 5744 5745 5746 5747 5747 5747 5747 5747 5747 5748 5748 5749 5749 5749 5749 5749 5749 5750 5750 5749 5749 5749 5750 5750 5750 5750 5751 5752 5753 5753 5753 5754 5753
5720 5721 5723 5724 5726 5727 5729 5730 5732 5733 5734 5735 5736 5737 5737 5738 5739 5738 5738 5739 5739 5739 5740 5740 5740 5740 5740 5740 5740 5740 5740 5740 5740 5739 5740 5741 5741 5742 5742 5742 5743 5743 5743 5743